| time (UTC) | temp C | wind direction | speed KPH | gust KPH | rain 1hr cm | rain 24hr cm | rain mn cm | humidity % | barometer mb |
| 20260510153603 | 13 | 81 | 12.9 | 17.7 | 0.00 | 0.00 | 0.00 | 60 | 1013.7 |
| 20260510152914 | 13 | 57 | 12.9 | 17.7 | 0.00 | 0.00 | 0.00 | 60 | 1013.9 |
| 20260510151803 | 13 | 61 | 14.5 | 17.7 | 0.00 | 0.00 | 0.00 | 60 | 1014.0 |
| 20260510150903 | 13 | 6 | 12.9 | 17.7 | 0.00 | 0.00 | 0.00 | 60 | 1014.1 |
| 20260510150003 | 13 | 54 | 16.1 | 20.9 | 0.00 | 0.00 | 0.00 | 60 | 1014.3 |
| 20260510145403 | 13 | 76 | 16.1 | 20.9 | 0.00 | 0.00 | 0.00 | 60 | 1014.1 |
| 20260510144503 | 13 | 93 | 12.9 | 24.1 | 0.00 | 0.00 | 0.00 | 60 | 1014.3 |
| 20260510143812 | 13 | 78 | 14.5 | 19.3 | 0.00 | 0.00 | 0.00 | 60 | 1014.1 |
| 20260510142703 | 14 | 55 | 14.5 | 24.1 | 0.00 | 0.00 | 0.00 | 57 | 1014.3 |
| 20260510141803 | 15 | 58 | 14.5 | 17.7 | 0.00 | 0.00 | 0.00 | 55 | 1014.3 |
| 20260510140903 | 15 | 60 | 19.3 | 24.1 | 0.00 | 0.00 | 0.00 | 57 | 1014.5 |
| 20260510140003 | 14 | 19 | 17.7 | 24.1 | 0.00 | 0.00 | 0.00 | 58 | 1014.5 |
| 20260510135403 | 14 | 25 | 17.7 | 25.7 | 0.00 | 0.00 | 0.00 | 57 | 1014.7 |
| 20260510134503 | 15 | 79 | 16.1 | 19.3 | 0.00 | 0.00 | 0.00 | 55 | 1014.5 |
| 20260510133603 | 15 | 52 | 16.1 | 27.4 | 0.00 | 0.00 | 0.00 | 55 | 1014.5 |
| 20260510132703 | 15 | 52 | 17.7 | 24.1 | 0.00 | 0.00 | 0.00 | 54 | 1014.4 |
| 20260510131803 | 16 | 61 | 14.5 | 19.3 | 0.00 | 0.00 | 0.00 | 53 | 1014.5 |
| 20260510130903 | 16 | 64 | 17.7 | 24.1 | 0.00 | 0.00 | 0.00 | 53 | 1014.6 |
| 20260510130003 | 16 | 52 | 14.5 | 25.7 | 0.00 | 0.00 | 0.00 | 53 | 1014.5 |
| 20260510125403 | 16 | 43 | 14.5 | 20.9 | 0.00 | 0.00 | 0.00 | 55 | 1014.4 |
| 20260510124503 | 15 | 26 | 17.7 | 25.7 | 0.00 | 0.00 | 0.00 | 55 | 1014.6 |
| 20260510123603 | 16 | 37 | 17.7 | 22.5 | 0.00 | 0.00 | 0.00 | 54 | 1014.6 |
| 20260510122703 | 16 | 33 | 17.7 | 22.5 | 0.00 | 0.00 | 0.00 | 53 | 1014.6 |
| 20260510121803 | 16 | 24 | 19.3 | 32.2 | 0.00 | 0.00 | 0.00 | 52 | 1014.9 |
| 20260510121114 | 16 | 48 | 12.9 | 19.3 | 0.00 | 0.00 | 0.00 | 53 | 1014.9 |
| 20260510120003 | 16 | 42 | 16.1 | 19.3 | 0.00 | 0.00 | 0.00 | 54 | 1014.8 |
| 20260510115403 | 15 | 57 | 14.5 | 19.3 | 0.00 | 0.00 | 0.00 | 56 | 1015.1 |
| 20260510114714 | 15 | 45 | 16.1 | 24.1 | 0.00 | 0.00 | 0.00 | 54 | 1014.8 |
| 20260510113813 | 16 | 92 | 17.7 | 25.7 | 0.00 | 0.00 | 0.00 | 56 | 1015.0 |
| 20260510112703 | 15 | 26 | 16.1 | 24.1 | 0.00 | 0.00 | 0.00 | 55 | 1015.0 |
| 20260510111803 | 15 | 48 | 16.1 | 24.1 | 0.00 | 0.00 | 0.00 | 55 | 1015.3 |
| 20260510110903 | 15 | 46 | 16.1 | 20.9 | 0.00 | 0.00 | 0.00 | 57 | 1015.2 |
| 20260510110003 | 16 | 64 | 14.5 | 22.5 | 0.00 | 0.00 | 0.00 | 56 | 1015.2 |
| 20260510105403 | 16 | 62 | 16.1 | 27.4 | 0.00 | 0.00 | 0.00 | 56 | 1015.1 |
| 20260510104714 | 15 | 60 | 16.1 | 27.4 | 0.00 | 0.00 | 0.00 | 55 | 1015.1 |
| 20260510103603 | 15 | 94 | 19.3 | 27.4 | 0.00 | 0.00 | 0.00 | 54 | 1015.4 |
| 20260510102914 | 15 | 78 | 17.7 | 24.1 | 0.00 | 0.00 | 0.00 | 56 | 1015.4 |
| 20260510101803 | 15 | 39 | 17.7 | 24.1 | 0.00 | 0.00 | 0.00 | 57 | 1015.5 |
| 20260510100903 | 15 | 42 | 19.3 | 30.6 | 0.00 | 0.00 | 0.00 | 58 | 1015.7 |
| 20260510100003 | 15 | 67 | 16.1 | 19.3 | 0.00 | 0.00 | 0.00 | 59 | 1015.5 |
| 20260510095403 | 14 | 49 | 16.1 | 22.5 | 0.00 | 0.00 | 0.00 | 60 | 1015.6 |
| 20260510094713 | 13 | 48 | 19.3 | 29.0 | 0.00 | 0.00 | 0.00 | 60 | 1015.7 |
| 20260510093603 | 13 | 41 | 17.7 | 24.1 | 0.00 | 0.00 | 0.00 | 60 | 1015.7 |
| 20260510092703 | 14 | 67 | 16.1 | 24.1 | 0.00 | 0.00 | 0.00 | 60 | 1015.7 |
| 20260510091803 | 13 | 80 | 20.9 | 29.0 | 0.00 | 0.00 | 0.00 | 61 | 1015.6 |
| 20260510090903 | 13 | 71 | 20.9 | 29.0 | 0.00 | 0.00 | 0.00 | 61 | 1015.8 |
| 20260510090214 | 13 | 58 | 20.9 | 29.0 | 0.00 | 0.00 | 0.00 | 61 | 1016.1 |
| 20260510085403 | 13 | 73 | 16.1 | 19.3 | 0.00 | 0.00 | 0.00 | 63 | 1015.8 |
| 20260510084503 | 12 | 52 | 19.3 | 29.0 | 0.00 | 0.00 | 0.00 | 63 | 1015.9 |
| 20260510083603 | 12 | 65 | 20.9 | 29.0 | 0.00 | 0.00 | 0.00 | 62 | 1015.8 |
| 20260510082703 | 12 | 58 | 17.7 | 29.0 | 0.00 | 0.00 | 0.00 | 62 | 1016.0 |
| 20260510082013 | 13 | 87 | 16.1 | 29.0 | 0.00 | 0.00 | 0.00 | 63 | 1016.0 |
| 20260510081114 | 12 | 80 | 16.1 | 25.7 | 0.00 | 0.00 | 0.00 | 65 | 1016.1 |
| 20260510080004 | 11 | 86 | 19.3 | 24.1 | 0.00 | 0.00 | 0.00 | 70 | 1016.0 |
| 20260510075403 | 11 | 66 | 19.3 | 24.1 | 0.00 | 0.00 | 0.00 | 69 | 1016.0 |
| 20260510074503 | 12 | 80 | 12.9 | 20.9 | 0.00 | 0.00 | 0.00 | 70 | 1016.3 |
| 20260510073603 | 12 | 40 | 14.5 | 22.5 | 0.00 | 0.00 | 0.00 | 71 | 1016.0 |
| 20260510072913 | 11 | 43 | 16.1 | 22.5 | 0.00 | 0.00 | 0.00 | 71 | 1016.1 |
| 20260510072012 | 11 | 58 | 16.1 | 22.5 | 0.00 | 0.00 | 0.00 | 72 | 1016.0 |
| 20260510071114 | 11 | 51 | 12.9 | 24.1 | 0.00 | 0.00 | 0.00 | 73 | 1016.0 |
| 20260510070003 | 11 | 104 | 12.9 | 17.7 | 0.00 | 0.00 | 0.00 | 75 | 1015.8 |
| 20260510065612 | 10 | 73 | 14.5 | 17.7 | 0.00 | 0.00 | 0.00 | 75 | 1015.9 |
| 20260510064503 | 10 | 97 | 17.7 | 24.1 | 0.00 | 0.00 | 0.00 | 76 | 1015.7 |
| 20260510063603 | 10 | 38 | 16.1 | 24.1 | 0.00 | 0.00 | 0.00 | 78 | 1015.5 |
| 20260510062913 | 9 | 46 | 16.1 | 20.9 | 0.00 | 0.00 | 0.00 | 79 | 1015.5 |
| 20260510061803 | 9 | 46 | 12.9 | 19.3 | 0.00 | 0.00 | 0.00 | 80 | 1015.6 |
| 20260510060903 | 8 | 81 | 12.9 | 24.1 | 0.00 | 0.00 | 0.00 | 81 | 1015.4 |
| 20260510060003 | 8 | 41 | 11.3 | 16.1 | 0.00 | 0.00 | 0.00 | 82 | 1015.3 |
| 20260510055403 | 8 | 66 | 9.7 | 12.9 | 0.00 | 0.00 | 0.00 | 82 | 1015.7 |
| 20260510054503 | 8 | 33 | 11.3 | 14.5 | 0.00 | 0.00 | 0.00 | 82 | 1015.4 |
| 20260510053603 | 8 | 13 | 11.3 | 16.1 | 0.00 | 0.00 | 0.00 | 82 | 1015.6 |
| 20260510052912 | 8 | 47 | 11.3 | 12.9 | 0.00 | 0.00 | 0.00 | 82 | 1015.7 |
| 20260510051803 | 8 | 45 | 9.7 | 11.3 | 0.00 | 0.00 | 0.00 | 82 | 1015.5 |
| 20260510050903 | 7 | 51 | 9.7 | 11.3 | 0.00 | 0.00 | 0.00 | 81 | 1015.7 |
| 20260510050004 | 7 | 60 | 9.7 | 12.9 | 0.00 | 0.00 | 0.00 | 80 | 1015.7 |
| 20260510045614 | 7 | 51 | 8.0 | 12.9 | 0.00 | 0.00 | 0.00 | 80 | 1015.6 |
| 20260510044713 | 8 | 16 | 9.7 | 12.9 | 0.00 | 0.00 | 0.00 | 80 | 1015.8 |
| 20260510043603 | 8 | 67 | 9.7 | 11.3 | 0.00 | 0.00 | 0.00 | 79 | 1015.8 |
| 20260510042703 | 8 | 52 | 11.3 | 16.1 | 0.00 | 0.00 | 0.00 | 78 | 1015.7 |
| 20260510041804 | 8 | 72 | 12.9 | 17.7 | 0.00 | 0.00 | 0.00 | 76 | 1015.9 |
| 20260510040903 | 8 | 29 | 11.3 | 17.7 | 0.00 | 0.00 | 0.00 | 74 | 1015.7 |
| 20260510040003 | 8 | 71 | 11.3 | 19.3 | 0.00 | 0.00 | 0.00 | 72 | 1015.7 |
| 20260510035403 | 8 | 71 | 11.3 | 19.3 | 0.00 | 0.00 | 0.00 | 72 | 1015.7 |
| 20260510034503 | 8 | 40 | 11.3 | 12.9 | 0.00 | 0.00 | 0.00 | 71 | 1015.6 |
| 20260510033603 | 8 | 38 | 9.7 | 11.3 | 0.00 | 0.00 | 0.00 | 70 | 1015.9 |
| 20260510032913 | 8 | 83 | 9.7 | 14.5 | 0.00 | 0.00 | 0.00 | 69 | 1016.0 |
| 20260510031803 | 9 | 34 | 12.9 | 16.1 | 0.00 | 0.00 | 0.00 | 68 | 1015.9 |
| 20260510030903 | 9 | 27 | 9.7 | 12.9 | 0.00 | 0.00 | 0.00 | 67 | 1015.8 |
| 20260510030003 | 10 | 43 | 9.7 | 12.9 | 0.00 | 0.00 | 0.00 | 65 | 1015.9 |
| 20260510025403 | 10 | 35 | 11.3 | 17.7 | 0.00 | 0.00 | 0.00 | 65 | 1015.9 |
| 20260510024712 | 10 | 50 | 11.3 | 17.7 | 0.00 | 0.00 | 0.00 | 64 | 1015.9 |
| 20260510023603 | 10 | 33 | 11.3 | 14.5 | 0.00 | 0.00 | 0.00 | 63 | 1015.9 |
| 20260510022703 | 10 | 78 | 12.9 | 17.7 | 0.00 | 0.00 | 0.00 | 62 | 1015.9 |
| 20260510022013 | 10 | 75 | 11.3 | 14.5 | 0.00 | 0.00 | 0.00 | 62 | 1015.8 |
| 20260510020903 | 10 | 61 | 9.7 | 17.7 | 0.00 | 0.00 | 0.00 | 63 | 1015.9 |
| 20260510020003 | 10 | 58 | 8.0 | 11.3 | 0.00 | 0.00 | 0.00 | 65 | 1015.8 |
| 20260510015403 | 10 | 54 | 9.7 | 14.5 | 0.00 | 0.00 | 0.00 | 66 | 1015.7 |
| 20260510014714 | 10 | 85 | 8.0 | 9.7 | 0.00 | 0.00 | 0.00 | 69 | 1015.7 |
| 20260510013814 | 11 | 51 | 6.4 | 9.7 | 0.00 | 0.00 | 0.00 | 70 | 1015.6 |
| 20260510012703 | 11 | 73 | 6.4 | 9.7 | 0.00 | 0.00 | 0.00 | 71 | 1015.7 |
| 20260510012014 | 11 | 58 | 6.4 | 8.0 | 0.00 | 0.00 | 0.00 | 72 | 1015.8 |
| 20260510010903 | 11 | 57 | 4.8 | 6.4 | 0.00 | 0.00 | 0.00 | 74 | 1015.7 |
| 20260510010003 | 11 | 42 | 6.4 | 6.4 | 0.00 | 0.00 | 0.00 | 75 | 1015.8 |
| 20260510005403 | 11 | 53 | 4.8 | 6.4 | 0.00 | 0.00 | 0.00 | 75 | 1015.7 |
| 20260510004503 | 11 | 93 | 4.8 | 6.4 | 0.00 | 0.00 | 0.00 | 76 | 1015.7 |
| 20260510003603 | 11 | 56 | 3.2 | 6.4 | 0.00 | 0.00 | 0.00 | 76 | 1015.7 |
| 20260510002703 | 11 | 50 | 3.2 | 6.4 | 0.00 | 0.00 | 0.00 | 77 | 1015.9 |
| 20260510001803 | 12 | 39 | 4.8 | 6.4 | 0.00 | 0.00 | 0.00 | 77 | 1015.9 |
| 20260510000903 | 12 | 71 | 4.8 | 6.4 | 0.00 | 0.00 | 0.00 | 77 | 1015.9 |
| 20260510000004 | 12 | 34 | 6.4 | 8.0 | 0.00 | 0.00 | 0.00 | 77 | 1015.8 |
| 20260509235403 | 12 | 78 | 4.8 | 6.4 | 0.00 | 0.00 | 0.00 | 77 | 1015.9 |
| 20260509234713 | 12 | 71 | 4.8 | 6.4 | 0.00 | 0.00 | 0.00 | 77 | 1015.8 |
| 20260509233603 | 12 | 74 | 4.8 | 6.4 | 0.00 | 0.00 | 0.00 | 75 | 1015.9 |
| 20260509232703 | 12 | 68 | 4.8 | 6.4 | 0.00 | 0.00 | 0.00 | 75 | 1015.5 |
| 20260509231803 | 12 | 58 | 4.8 | 6.4 | 0.00 | 0.00 | 0.00 | 76 | 1015.5 |
| 20260509230903 | 12 | 57 | 4.8 | 6.4 | 0.00 | 0.00 | 0.00 | 77 | 1015.6 |
| 20260509230004 | 12 | 60 | 4.8 | 6.4 | 0.00 | 0.00 | 0.00 | 76 | 1015.5 |
| 20260509225403 | 12 | 67 | 4.8 | 6.4 | 0.00 | 0.00 | 0.00 | 76 | 1015.4 |
| 20260509224503 | 12 | 81 | 6.4 | 8.0 | 0.00 | 0.00 | 0.00 | 76 | 1015.4 |
| 20260509223603 | 12 | 78 | 4.8 | 6.4 | 0.00 | 0.00 | 0.00 | 75 | 1015.5 |
| 20260509222703 | 12 | 27 | 6.4 | 9.7 | 0.00 | 0.00 | 0.00 | 75 | 1015.4 |
| 20260509221803 | 13 | 354 | 8.0 | 12.9 | 0.00 | 0.00 | 0.00 | 74 | 1015.4 |
| 20260509220903 | 13 | 54 | 6.4 | 8.0 | 0.00 | 0.00 | 0.00 | 73 | 1015.6 |
| 20260509220003 | 13 | 67 | 6.4 | 8.0 | 0.00 | 0.00 | 0.00 | 72 | 1015.7 |
| 20260509215403 | 13 | 31 | 6.4 | 8.0 | 0.00 | 0.00 | 0.00 | 72 | 1015.6 |
| 20260509214503 | 13 | 23 | 4.8 | 6.4 | 0.00 | 0.00 | 0.00 | 71 | 1015.5 |
| 20260509213603 | 13 | 78 | 6.4 | 9.7 | 0.00 | 0.00 | 0.00 | 70 | 1015.8 |
| 20260509212703 | 13 | 29 | 6.4 | 9.7 | 0.00 | 0.00 | 0.00 | 67 | 1015.4 |
| 20260509211803 | 13 | 17 | 4.8 | 6.4 | 0.00 | 0.00 | 0.00 | 64 | 1015.2 |
| 20260509211114 | 14 | 78 | 8.0 | 12.9 | 0.00 | 0.00 | 0.00 | 63 | 1015.2 |
| 20260509210004 | 14 | 79 | 4.8 | 8.0 | 0.00 | 0.00 | 0.00 | 62 | 1015.0 |
| 20260509205403 | 14 | 64 | 3.2 | 8.0 | 0.00 | 0.00 | 0.00 | 62 | 1015.1 |
| 20260509204503 | 15 | 16 | 3.2 | 4.8 | 0.00 | 0.00 | 0.00 | 61 | 1015.0 |
| 20260509203603 | 15 | 87 | 3.2 | 4.8 | 0.00 | 0.00 | 0.00 | 61 | 1014.8 |
| 20260509202913 | 15 | 53 | 3.2 | 6.4 | 0.00 | 0.00 | 0.00 | 60 | 1015.0 |
| 20260509201803 | 16 | 37 | 3.2 | 4.8 | 0.00 | 0.00 | 0.00 | 58 | 1015.0 |
| 20260509200903 | 16 | 44 | 4.8 | 6.4 | 0.00 | 0.00 | 0.00 | 56 | 1014.8 |
| 20260509200003 | 16 | 21 | 4.8 | 6.4 | 0.00 | 0.00 | 0.00 | 55 | 1014.7 |
| 20260509195403 | 16 | 53 | 4.8 | 6.4 | 0.00 | 0.00 | 0.00 | 55 | 1014.6 |
| 20260509194503 | 17 | 65 | 4.8 | 6.4 | 0.00 | 0.00 | 0.00 | 53 | 1014.5 |
| 20260509193603 | 17 | 82 | 4.8 | 6.4 | 0.00 | 0.00 | 0.00 | 53 | 1014.3 |
| 20260509192703 | 17 | 34 | 6.4 | 9.7 | 0.00 | 0.00 | 0.00 | 50 | 1014.2 |
| 20260509191803 | 17 | 59 | 6.4 | 9.7 | 0.00 | 0.00 | 0.00 | 48 | 1014.4 |
| 20260509190903 | 18 | 28 | 8.0 | 9.7 | 0.00 | 0.00 | 0.00 | 47 | 1014.4 |
| 20260509190003 | 18 | 58 | 8.0 | 9.7 | 0.00 | 0.00 | 0.00 | 46 | 1014.2 |
| 20260509185403 | 18 | 30 | 8.0 | 12.9 | 0.00 | 0.00 | 0.00 | 47 | 1014.5 |
| 20260509184503 | 18 | 53 | 8.0 | 11.3 | 0.00 | 0.00 | 0.00 | 47 | 1014.2 |
| 20260509183603 | 18 | 43 | 8.0 | 12.9 | 0.00 | 0.00 | 0.00 | 47 | 1014.3 |
| 20260509182914 | 18 | 59 | 9.7 | 12.9 | 0.00 | 0.00 | 0.00 | 48 | 1014.2 |
| 20260509182013 | 18 | 99 | 9.7 | 12.9 | 0.00 | 0.00 | 0.00 | 47 | 1014.3 |
| 20260509181113 | 19 | 61 | 9.7 | 14.5 | 0.00 | 0.00 | 0.00 | 46 | 1014.0 |
| 20260509180003 | 19 | 96 | 9.7 | 12.9 | 0.00 | 0.00 | 0.00 | 45 | 1014.1 |
| 20260509175403 | 19 | 54 | 9.7 | 12.9 | 0.00 | 0.00 | 0.00 | 45 | 1014.3 |
| 20260509174503 | 20 | 90 | 9.7 | 14.5 | 0.00 | 0.00 | 0.00 | 44 | 1014.0 |
| 20260509173603 | 20 | 68 | 9.7 | 12.9 | 0.00 | 0.00 | 0.00 | 43 | 1013.9 |
| 20260509172703 | 20 | 50 | 9.7 | 12.9 | 0.00 | 0.00 | 0.00 | 42 | 1014.0 |
| 20260509171803 | 20 | 68 | 8.0 | 12.9 | 0.00 | 0.00 | 0.00 | 43 | 1013.9 |
| 20260509170903 | 20 | 41 | 11.3 | 14.5 | 0.00 | 0.00 | 0.00 | 42 | 1014.0 |
| 20260509170003 | 20 | 48 | 9.7 | 14.5 | 0.00 | 0.00 | 0.00 | 41 | 1014.1 |
| 20260509165613 | 21 | 56 | 9.7 | 12.9 | 0.00 | 0.00 | 0.00 | 41 | 1014.1 |
| 20260509164503 | 21 | 75 | 9.7 | 12.9 | 0.00 | 0.00 | 0.00 | 41 | 1014.1 |
| 20260509163603 | 21 | 17 | 8.0 | 12.9 | 0.00 | 0.00 | 0.00 | 42 | 1014.3 |
| 20260509162703 | 20 | 32 | 11.3 | 17.7 | 0.00 | 0.00 | 0.00 | 42 | 1013.9 |
| 20260509161803 | 21 | 88 | 8.0 | 12.9 | 0.00 | 0.00 | 0.00 | 41 | 1014.2 |
| 20260509160903 | 20 | 57 | 9.7 | 12.9 | 0.00 | 0.00 | 0.00 | 42 | 1014.4 |
| 20260509160003 | 20 | 69 | 11.3 | 17.7 | 0.00 | 0.00 | 0.00 | 42 | 1014.4 |
| 20260509155403 | 20 | 79 | 9.7 | 17.7 | 0.00 | 0.00 | 0.00 | 41 | 1014.3 |
| 20260509154503 | 20 | 90 | 11.3 | 14.5 | 0.00 | 0.00 | 0.00 | 43 | 1014.1 |